Location: Unspecified
(0.0000°N, 0.0000°E)
Time: 00:19:45
(UTC+02:00)

Daily predictions for brighter satellites

Satellite Brightness Start Highest point End
(mag) Time Altitude Azimuth Time Altitude Azimuth Time Altitude Azimuth
Maqsat-H 4.3 04:45:27 42° SE 04:45:27 42° SE 05:00:18 10° E
Longmarch 3A Rocket 4.4 04:59:31 46° SE 04:59:31 46° SE 05:22:26 10° ENE
Ariane H10 4.1 05:21:31 38° SE 05:21:31 38° SE 05:31:15 10° E
COSMOS 2455 4.0 05:43:32 31° S 05:43:32 31° S 05:46:32 10° SSE
H-2A ROCKET BODY 3.1 05:44:49 35° ESE 05:44:49 35° ESE 05:51:33 10° ENE
Cosmos 2333 Rocket 3.8 05:43:04 10° NNE 05:48:02 32° ENE 05:53:00 10° SE
Cosmos 1605 Rocket 4.3 06:01:27 48° SSW 06:01:27 48° SSW 06:06:06 10° S
BLOCK DM-SL R/B 3.4 05:53:47 41° W 06:00:18 89° N 06:05:12 10° E
Feng Yun 1-1 Rocket 4.3 05:56:10 10° NNE 06:01:59 82° ESE 06:07:56 10° S
ARIANE 5 DEB (SYLDA) 3.5 06:06:45 68° SSW 06:07:08 71° S 06:17:51 10° E
BREEZE-M DEB (TANK) 4.3 06:06:32 54° WSW 06:07:27 59° SW 06:24:48 10° SSE
COSMOS 2428 3.9 06:10:43 27° SSW 06:10:43 27° SSW 06:13:30 10° S
Milstar 3 Cent rocket 4.2 06:06:41 12° S 06:09:11 16° SSE 06:12:23 10° ESE
Cosmos 2237 Rocket 3.2 06:05:30 10° N 06:10:48 44° ENE 06:16:07 10° SE
Meteor 1-31 Rocket 3.5 06:09:40 10° NNE 06:13:31 55° E 06:17:24 10° S
ADEOS II 2.1 06:10:06 10° N 06:22:08 - SSW 06:14:54 58° WNW
CZ-4C R/B 3.0 06:12:26 30° NW 06:16:36 64° WSW 06:24:22 10° SSE
Cosmos 1626 Rocket 3.6 06:12:46 10° S 06:17:13 77° E 06:21:36 10° N
ATLAS 3B R/B 4.0 06:26:39 18° SW 06:26:39 18° SW 06:29:03 10° SSW
Cosmos 1980 3.9 06:19:10 10° N 06:24:49 73° ENE 06:30:28 10° SSE
Cosmos 1680 Rocket 3.6 06:19:38 10° N 06:24:50 74° ENE 06:30:02 10° SSE
CZ-3 R/B 4.2 06:18:05 26° W 06:27:34 34° SW 06:36:10 10° SSE
Cosmos 1607 4.1 06:27:23 32° WNW 06:29:55 50° WSW 06:36:00 10° S
Cosmos 972 Rocket 4.0 06:27:32 27° SW 06:30:01 52° W 06:35:09 10° N
SL-8 R/B 3.7 06:27:54 32° NNW 06:30:05 83° NE 06:34:54 10° SE
Cosmos 1666 2.6 06:26:42 10° N 06:30:29 87° E 06:34:16 10° S
SL-16 R/B 4.5 06:26:39 10° NNE 06:31:09 24° ENE 06:35:38 10° SE
CZ-3C R/B 4.4 06:24:39 10° SSW 06:33:19 35° SSE 07:41:58 10° E
Meteor 2-9 Rocket 4.3 06:28:52 10° N 06:34:40 82° E 06:40:33 10° S
Thor Agena Rocket 3.8 06:29:43 10° SSE 06:34:56 72° ENE 06:40:12 10° N
Intelsat 3F5 C 4.3 06:36:21 50° NNE 06:36:21 50° NNE 06:38:43 10° NE
Abrixas 2.9 06:36:27 49° SSW 06:36:27 49° SSW 06:39:00 10° SSE
Cosmos 2061 Rocket 4.0 06:31:21 10° N 06:37:44 89° E 06:44:12 10° S
Cosmos 2100 Rocket 3.9 06:32:20 10° N 06:38:38 78° W 06:45:00 10° S
Cosmos 1802 Rocket 4.0 06:33:35 10° N 06:39:41 80° E 06:45:52 10° S
USA 215 3.7 06:33:13 10° SE 06:39:42 63° NE 06:46:09 10° NNW
Cosmos 1602 Rocket 3.7 06:36:19 10° SSW 06:40:38 48° W 06:44:55 10° NNW
Cosmos 1606 Rocket 3.7 06:38:36 10° NNW 06:42:41 44° W 06:46:48 10° SSW
SL-24 R/B 3.8 06:40:28 10° NNE 06:44:08 74° E 06:47:46 10° S
NOSS 3-2 (A) 4.3 06:36:49 10° NNW 06:44:58 78° ENE 06:53:05 10° SSE
CZ-2C R/B 4.3 06:42:17 10° SSW 06:46:16 32° WSW 06:48:45 19° NW
Cosmos 2219 Rocket 2.7 06:43:58 16° NW 06:47:52 37° WSW 06:53:02 10° S
USA 238 DEB 4.3 06:46:20 18° WNW 06:50:35 34° WSW 06:56:50 10° S
USA 238 4.3 06:46:19 18° WNW 06:50:40 35° WSW 06:56:57 10° S
CZ-3B DEB 4.0 06:47:28 21° W 06:51:52 33° NW 07:07:34 10° NNE
ATLAS 2AS CENTAUR RB 4.3 06:29:29 17° WSW 06:52:37 47° S 06:58:04 10° ESE
Ariane H10 2.1 06:52:14 30° WNW 06:53:01 45° N 06:56:09 10° ENE
Cosmos 1726 Rocket 3.9 06:49:24 10° NNW 06:53:25 38° W 06:57:27 10° SSW
ARIANE 5 DEB (SYLDA) 4.1 06:54:27 20° W 06:57:17 71° S 07:09:11 10° E
CSL-04 Rocket 3.9 06:58:21 10° NNE 07:03:38 76° ESE 07:09:02 10° S
Cosmos 2263 Rocket 2.1 07:00:29 10° SSW 07:06:03 70° WNW 07:11:36 10° N
ISO 3.9 06:46:16 17° W 07:06:20 76° N 07:10:47 10° ENE
Ariane Rocket 3.0 07:02:15 10° N 07:07:17 67° WNW 07:12:21 10° SSW
MOS 1 Rocket 4.5 07:05:15 10° NNW 07:09:30 26° W 07:13:53 10° SW
ARIANE 5 R/B 3.2 07:01:02 13° W 07:12:30 80° S 07:15:31 10° E
Cosmos 2016 Rocket 4.0 07:07:00 10° NNW 07:13:05 58° W 07:19:09 10° S
Cosmos 372 Rocket 3.9 07:08:09 10° SSW 07:13:10 62° WNW 07:18:11 10° N
ISS -3.4 07:09:56 10° NW 07:13:12 70° SW 07:16:30 10° SSE
Cosmos 1125 Rocket 4.2 07:09:56 10° SW 07:14:31 31° WNW 07:19:04 10° NNW
Aureole 2 Rocket 3.2 07:14:23 10° N 07:17:10 45° ENE 07:19:50 10° SSE
Cosmos 2098 Rocket 4.0 07:13:26 10° NNW 07:18:44 58° W 07:25:22 10° S
Cosmos 292 Rocket 4.0 07:16:41 10° NNW 07:21:20 48° WSW 07:25:59 10° S
Sylda 4400 4.3 07:17:30 10° W 07:21:55 69° S 07:26:04 10° ESE
Cosmos 2228 3.6 07:18:30 10° NNW 07:22:24 33° W 07:26:19 10° SSW
NATO 3D Rocket 4.2 07:17:24 10° W 07:22:39 37° NNW 07:27:04 10° NE
NOSS 3-2 (C) 4.1 07:15:19 10° NNW 07:23:25 71° WSW 07:31:30 10° SSE
Cosmos 1812 Rocket 3.7 07:23:35 10° N 07:28:03 86° E 07:32:32 10° S
USA 234 3.5 07:25:42 10° NNE 07:31:57 50° NW 07:38:14 10° SW
